OBJECT AD (43785 NORAD) Tracking and Keplerian Element Data

This shows tracking and keplerian element data for the satellite.

Feedback or suggestion? Click here.




ElementValue
Catalog43785
NameOBJECT AD
Epoch Orbit523
Epoch Day10.7679422
Epoch Year2019
RAAN84.5132
Inclination97.7573
Eccentricity0.0014894
Argument of Perigee126.116
Mean Anonmoly234.1441
Mean Motion14.95033702
Decay Rate1.53E-06
L11 43785U 18099AD 19010.76794220 .00000153 00000-0 19282-4 0 9997
L22 43785 97.7573 84.5132 0014894 126.1160 234.1441 14.95033702 5236

Live tracking and technical data element details for OBJECT AD (NORAD 43785). OBJECT AD can be tracked NOW for your location showing map with azimuth and elevation plus other details from your city location.

Track the satellite on the map from your city or location and see movement details for azimuth, elevation, latitude, longitude, range, height, and movement on the map or in text.







IsCatalogInMostPopularTable: catalog: 43785, numindb: 20
Update: records affected: 1



GetName: 43785 OBJECT AD

Hit Count: updated at: Thu, 17 Jan 2019 14:38:36 GMT